Regional Weather Roundup
Issued by NWS Upton, NY

Current Version | Previous Version | Graphics & Text | Print | Product List | Glossary Off
Versions: 1 2 3 4 5 6 7 8 9 10 11 12 13 14 15 16 17 18 19 20 21 22 23 24 25 26 27 28 29 30 31 32 33 34 35 36 37 38 39 40 41 42 43 44 45 46 47 48 49 50

000
ASUS41 KOKX 192105
RWROKX

REGIONAL WEATHER ROUNDUP
NATIONAL WEATHER SERVICE NEW YORK NY
500 PM EDT SUN OCT 19 2014

NOTE: "FAIR" INDICATES FEW OR NO CLOUDS BELOW 12,000 FEET WITH NO
SIGNIFICANT WEATHER AND/OR OBSTRUCTIONS TO VISIBILITY.

NYZ071-072-176-178-NJZ106-104-192200-
NEW YORK CITY METRO AREA


CITY           SKY/WX    TMP DP  RH WIND       PRES   REMARKS
CENTRAL PARK   SUNNY     51  24  34 NW12G22   29.98R
LAGUARDIA APRT MOSUNNY   52  30  43 NW22G30   29.95R
KENNEDY INTL   MOSUNNY   53  24  32 NW21G29   29.96R
NEWARK/LIBERTY MOSUNNY   53  26  35 NW16G26   29.97R
BRNX BOT. GARD   N/A    N/A N/A N/A NW7       29.97R
TETERBORO      SUNNY     52  25  35 NW14G24   29.96R
$$

NYZ177-179-078>081-192200-
LONG ISLAND NEW YORK

CITY           SKY/WX    TMP DP  RH WIND       PRES   REMARKS
FARMINGDALE    SUNNY     53  26  35 N14G25    29.94R
ISLIP          MOSUNNY   53  31  42 W17G24    29.89R
SHIRLEY        NOT AVBL
WESTHAMPTON    SUNNY     53  29  39 NW14G25   29.91R
MONTAUK POINT    N/A     53  31  42 NW14G23   29.88R
$$

NYZ052-065-067-192200-
HUDSON VALLEY

CITY           SKY/WX    TMP DP  RH WIND       PRES   REMARKS
WHITE PLAINS   MOSUNNY   49  25  39 NW20G26   29.94R
NEWBURGH       MOSUNNY   48  28  46 N14G22    29.96R
MONTGOMERY     SUNNY     48  26  42 NW15G25   29.96R
POUGHKEEPSIE   SUNNY     49  25  39 N12G21    29.97R
ALBANY         PTSUNNY   45  25  45 NW18G30   29.96R
$$

NJZ001-105-106-008-010-013-015-019>022-104-192200-
NEW JERSEY

CITY           SKY/WX    TMP DP  RH WIND       PRES   REMARKS
NEWARK/LIBERTY MOSUNNY   53  26  35 NW16G26   29.97R
TETERBORO      SUNNY     52  25  35 NW14G24   29.96R
CALDWELL       SUNNY     50  25  37 NW15G29   29.98R
MORRISTOWN     MOSUNNY   50  27  40 N15G28    29.98R
SOMERVILLE     SUNNY     51  25  36 N14G23    29.98R
SUSSEX         SUNNY     50  26  39 NW15G22   29.99R
ANDOVER          N/A     48  25  40 VRB7G17   29.99R
TRENTON        SUNNY     52  27  38 N10       29.98R
MILLVILLE      SUNNY     54  29  38 NW16      30.00R
ATLANTIC CITY  SUNNY     54  29  38 NW21      29.97R
WRIGHTSTOWN    SUNNY     52  29  40 NW17      29.96R
TOMS RIVER     SUNNY     52  27  37 NW13G18   29.98R
BELMAR         SUNNY     52  27  37 NW16G25   29.96R
$$

PAZ047>061-062-071-192200-
EASTERN PENNSYLVANIA

CITY           SKY/WX    TMP DP  RH WIND       PRES   REMARKS
PHILADELPHIA   MOSUNNY   55  27  34 NW15G25   30.01R
ALLENTOWN      SUNNY     52  25  35 NW10G18   29.99R
SCRANTON       SUNNY     48  26  42 NW12G21   30.01R
$$

CTZ002-004>006-009-010-012-RIZ004-006-007-MAZ004-011-015-192200-
SOUTHERN NEW ENGLAND
 IN CT

CITY           SKY/WX    TMP DP  RH WIND       PRES   REMARKS
BRADLEY INTL   PTSUNNY   50  28  42 NW12G22   29.90R
HARTFORD       PTSUNNY   49  27  42 NW12G22   29.91R
DANBURY        MOSUNNY   48  24  39 NW12G22   29.94R
WTRBRY/OXFORD  MOSUNNY   46  25  42 N15G26    29.92R
BRIDGEPORT     SUNNY     52  28  39 N15G24    29.91R
MERIDEN        MOSUNNY   49  27  42 NW17G26   29.92R
NEW HAVEN      MOSUNNY   53  27  36 NW12G26   29.92R
CHESTER        FAIR      50  30  46 NW15G21   29.89R
GROTON         PTSUNNY   50  30  46 NW10G20   29.87R
WILLIMANTIC    CLOUDY    50  30  46 NW12G21   29.88R

 IN RI

CITY           SKY/WX    TMP DP  RH WIND       PRES   REMARKS
PROVIDENCE     MOCLDY    52  32  46 NW13G22   29.84R
BLOCK ISLAND   MOCLDY    52  32  46 NW13G21   29.85R
WESTERLY       PTCLDY    52  30  43 VRB5      29.86R

 IN MA

CITY           SKY/WX    TMP DP  RH WIND       PRES   REMARKS
BOSTON         CLOUDY    51  30  44 NW15G23   29.83R
WORCESTER      CLOUDY    45  30  55 NW12      29.85R
WESTFIELD      CLOUDY    48  28  46 W17       29.90R
PROVINCETOWN   CLOUDY    52  36  54 NW22G28   29.80R
NANTUCKET      CLOUDY    53  38  56 N13       29.78R
$$

ANZ330-335-338-340-345-350-353-355-192200-
COASTAL MARINE OBSERVATIONS


STATION/POSITION TIME  SKY/WX   TEMP    WIND        PRES    VSBY  WAVE
                                AIR SEA DIR/SP/G                  HT/PER
                 (UTC)          (F)     (DEG/KT/KT) (MB)    (MI)  (FT/S)
NY HARB ENTRANCE NOT AVBL
4S FIRE IS       2100               64                N/A           4/13
20S FIRE ISLAND  2100            54 64  310/ 21/ 27 1012.4          5/ 5
23SW MTP         2100                                 N/A           4/ 5
HUDSON CANYON    2100            55 66  310/ 23/ 31 1011.7          7/ 6
EXECUTION ROCKS  2100            54 64  310/ 17/ 25   N/A
WESTERN LI SOUND 2100            53     320/ 21/ 29   N/A           2/ 3
CENTRAL LI SOUND 2000            52 64  310/ 19/ 23   N/A           3/ 4
EASTERN LI SOUND 2000            53 64  320/ 17/ 23   N/A
ROBBINS REEF     2100            51     330/ 22/ 26 1013.0
$$


>>>>>>>>>>>>>>>>>>>>>>>>>>>> KEY <<<<<<<<<<<<<<<<<<<<<<<<<<<
>                                                          <
>     SKY/WX - SKY CONDITION/PRESENT WEATHER               <
>     TMP    - TEMPERATURE IN FAHRENHEIT                   <
>     DP     - DEWPOINT IN FAHRENHEIT                      <
>     RH     - RELATIVE HUMIDITY IN PERCENT                <
>     WIND   - DIRECTION AND SPEED IN MPH                  <
>     PRES   - MEAN SEA LEVEL PRESSURE IN INCHES OF HG     <
>     WCI    - WIND CHILL INDEX                            <
>     VSB    - VISIBILITY IN MILES                         <
>     HX     - HEAT INDEX                                  <
>     TC     - TEMPERATURE IN CELSIUS                      <
>     VRB    - VARIABLE WIND DIRECTION                     <
>                                                          <
>>>>>>>>>>>>>>>>>>>>>>>>>>>> KEY <<<<<<<<<<<<<<<<<<<<<<<<<<<





USA.gov is the U.S. government's official web portal to all federal, state and local government web resources and services.